Helicity
35 -153 -36 43 103 120 127 167 89 47 65 154 175 30 73 188 223 203 139 80 37 -29 -67 13 178 268 230 185 234 230 160 73 117 55 43 20 -20 -55 -59 3 22 29 43 46
-38 -122 22 43 50 103 161 133 110 10 84 58 61 79 76 176 300 241 180 107 64 -27 -100 30 116 223 284 270 231 213 183 155 77 27 8 -10 -26 -45 -32 15 52 32 22 24
-102 -8 74 49 75 119 92 44 58 68 -8 7 -20 -4 119 142 131 150 110 98 86 88 28 111 190 210 232 217 260 235 225 166 56 8 16 33 -0 -36 -28 10 25 27 8 7
-8 49 25 62 112 77 50 12 -25 75 79 -6 124 39 92 247 181 170 202 110 49 75 71 193 238 188 187 189 229 219 214 190 49 17 51 49 3 -5 -4 20 34 13 1 -2
35 97 109 120 119 50 84 5 9 -3 44 -6 5 36 30 150 219 240 259 196 135 77 147 249 298 247 195 179 214 209 176 185 74 31 23 36 -10 -5 -36 -2 7 23 -7 -13
43 88 99 60 70 60 31 52 30 -15 -8 12 -30 30 68 112 178 195 218 209 195 145 112 208 268 257 194 179 184 178 166 167 127 44 12 41 45 11 3 3 58 35 26 17
61 9 20 21 -13 33 48 68 -29 11 5 2 -4 42 78 8 31 151 284 308 210 166 165 201 272 216 166 192 217 183 152 162 142 74 -0 11 40 45 31 41 33 4 20 37
29 69 24 11 27 26 -2 20 31 10 14 10 28 14 29 32 42 96 130 295 263 183 162 196 241 294 261 221 275 235 177 128 148 115 24 -21 17 53 37 35 14 11 43 44
26 56 27 44 20 37 -22 -12 4 55 39 52 18 8 18 55 33 -14 106 176 225 203 158 185 181 210 259 239 258 291 220 149 138 127 40 -13 -3 48 72 58 30 20 27 33
20 67 48 43 -2 35 -12 6 33 46 27 67 39 16 -13 30 29 6 35 143 182 218 190 133 150 191 251 278 226 266 248 225 202 149 73 29 21 42 48 58 60 45 39 52
88 92 68 35 13 32 86 43 11 19 48 13 60 21 9 7 2 36 37 80 178 209 194 172 158 160 249 257 221 240 241 198 147 139 99 51 37 48 57 58 58 55 40 76
70 13 49 26 56 86 -18 40 14 36 72 76 44 46 22 66 25 -52 24 -5 52 138 150 139 134 181 159 200 224 262 251 236 212 183 141 108 63 56 66 78 64 97 104 139
45 93 69 84 75 87 78 34 -9 37 32 80 127 64 21 -17 -28 35 -8 9 -23 98 95 47 104 148 182 200 193 232 244 234 237 207 179 124 109 104 99 102 100 180 223 225
51 105 135 66 29 14 3 38 71 27 35 54 46 47 56 -63 -31 -48 11 -37 -46 47 78 95 116 129 140 208 196 195 209 189 193 218 203 165 159 169 142 141 189 228 275 291
130 138 111 77 74 56 13 34 72 68 57 19 80 30 144 -3 -84 -41 -41 48 53 34 9 43 102 103 109 152 157 151 180 177 196 197 205 192 176 156 164 185 239 277 303 324
204 188 192 156 147 120 104 52 33 13 72 53 68 105 291 151 133 230 291 308 319 249 145 35 -43 7 61 100 135 141 147 200 247 231 218 188 181 223 230 251 255 286 323 344
170 193 229 204 132 104 146 103 26 -32 4 36 118 226 311 282 369 442 580 541 422 279 239 219 174 101 15 -34 80 155 150 203 272 258 211 218 286 279 271 288 263 277 343 314
76 151 170 198 178 121 75 124 96 72 49 18 -5 183 314 305 270 559 549 556 468 426 363 192 167 180 160 88 18 -48 84 151 165 173 170 236 311 315 321 300 259 297 325 307
87 132 208 177 177 184 153 107 72 44 59 66 48 80 234 283 292 486 627 499 405 338 278 281 223 93 125 120 92 83 79 79 130 141 210 300 323 309 293 245 252 295 322 337
142 146 161 195 211 152 131 156 119 109 54 14 29 71 163 240 296 286 488 548 524 321 216 150 194 197 47 114 125 52 69 79 75 106 144 172 200 224 223 225 258 286 293 366
183 197 203 212 209 176 102 107 94 127 50 35 -15 8 93 151 165 213 264 301 289 247 260 87 17 80 129 -4 4 48 71 123 137 168 163 179 190 206 230 269 325 359 360 352
115 120 117 141 137 108 116 140 128 113 110 53 34 -2 -13 4 90 150 141 121 217 262 212 -8 -15 -30 25 24 -55 -8 20 21 55 102 130 145 181 183 222 279 292 300 277 278
70 73 89 87 116 68 57 62 40 50 46 43 24 15 -6 -7 -4 27 114 272 247 118 88 -13 -7 -21 6 5 -57 -21 9 39 53 78 101 118 122 144 172 209 227 233 226 218
87 93 76 80 58 28 41 77 63 45 60 33 -5 -17 -25 13 65 108 136 74 51 124 121 69 -26 31 134 -1 -75 -36 8 26 39 59 92 101 110 116 112 126 147 162 175 169
104 101 85 52 36 24 45 35 28 41 69 60 50 31 30 12 23 52 69 52 -8 -82 -24 68 30 60 30 -36 -5 -4 -0 25 43 50 50 50 48 57 77 99 79 92 99 120
125 105 107 42 26 36 4 24 37 40 71 83 82 97 112 78 51 42 33 31 16 50 -24 86 65 36 16 9 11 -18 4 47 67 50 33 29 40 53 67 64 69 100 87 55
Wind_Speed
45 13 41 31 25 20 13 15 36 33 32 29 35 29 39 49 51 50 51 53 55 61 63 50 51 45 53 58 52 48 48 50 46 46 42 42 44 40 32 30 27 27 28 28
21 46 47 39 30 24 13 15 22 36 29 33 31 35 35 48 50 51 49 51 54 57 57 53 45 45 49 56 55 50 50 48 47 45 44 43 40 37 34 34 26 21 24 34
9 29 43 46 39 34 30 25 20 20 30 34 33 31 32 42 45 46 54 48 52 56 56 57 51 51 50 52 55 54 50 47 44 46 38 17 27 39 35 35 31 32 33 34
37 43 35 39 44 38 41 22 23 31 27 31 26 34 28 26 38 40 44 55 53 52 58 54 55 55 54 56 52 48 43 45 47 45 37 36 39 41 33 33 38 34 33 31
21 34 44 48 43 38 49 40 34 26 27 33 23 34 30 23 31 39 45 50 60 55 49 51 54 58 59 52 52 46 41 42 44 45 41 40 45 40 37 38 36 34 27 26
55 47 48 43 49 49 47 39 36 32 31 32 28 27 33 24 30 35 45 57 56 51 47 49 54 53 55 52 50 46 42 42 42 46 48 45 49 45 41 40 34 34 27 27
49 52 35 28 45 39 35 38 34 35 26 27 28 32 35 35 40 37 44 50 58 56 47 48 46 50 49 49 46 46 45 44 45 50 54 51 48 45 43 40 38 23 27 26
30 24 21 23 34 51 36 21 25 31 34 38 27 32 33 31 30 37 43 44 50 53 52 51 44 51 53 51 46 46 48 47 49 50 55 53 48 45 41 39 36 28 26 25
20 26 30 39 45 20 24 27 27 28 37 46 39 36 35 31 32 27 36 37 43 54 53 52 47 49 50 51 50 49 50 51 47 50 52 54 49 46 43 38 35 30 20 21
28 35 29 41 30 25 30 22 33 35 40 40 33 34 36 30 30 29 33 34 46 53 58 55 53 47 45 50 55 50 48 49 49 47 48 52 52 49 44 35 34 29 21 22
30 34 43 37 29 31 30 34 36 32 30 34 42 42 26 9 17 31 21 26 35 49 51 55 56 48 45 45 49 51 49 47 44 44 40 42 48 51 46 39 32 30 25 19
31 30 31 26 25 32 30 36 36 38 40 36 36 43 32 2 50 44 30 19 18 38 48 52 55 48 46 43 48 51 51 48 49 46 38 42 46 46 46 44 35 24 16 17
28 34 33 32 32 37 36 41 42 38 36 34 42 45 27 20 55 44 41 40 14 29 40 46 45 49 47 46 45 47 46 50 48 43 44 43 46 44 44 39 30 12 15 19
21 32 32 34 34 35 37 41 43 39 42 44 37 38 16 14 15 56 41 14 13 22 31 41 40 47 47 42 43 43 45 45 41 39 41 44 46 44 38 25 18 17 21 27
34 36 34 31 30 33 34 37 40 39 42 41 47 46 33 42 49 50 27 16 16 8 15 29 38 44 45 42 41 36 37 35 32 36 39 47 41 31 22 20 16 17 20 26
44 39 38 34 34 28 34 35 36 38 46 42 50 27 40 36 24 19 14 10 14 20 21 24 35 36 33 42 46 45 37 30 23 29 37 36 24 18 19 16 16 16 17 20
44 35 42 31 34 31 43 40 36 33 39 37 35 41 42 16 13 25 18 18 20 23 24 26 29 32 52 57 50 48 46 22 21 24 26 19 17 19 18 16 16 17 17 19
23 31 34 40 40 42 35 32 28 29 36 35 34 37 31 8 9 18 18 19 23 29 31 33 32 34 37 43 52 50 17 16 21 23 21 22 20 20 20 19 20 19 17 20
19 26 31 31 32 35 28 30 36 40 42 46 40 34 29 28 25 23 25 25 28 30 31 35 39 39 41 40 40 40 43 24 15 20 20 25 28 28 27 24 23 22 21 20
30 26 23 28 33 32 30 35 38 40 53 49 48 44 40 34 35 38 37 35 34 34 32 35 40 42 43 46 48 43 41 44 46 38 36 32 25 23 22 22 22 24 23 22
34 35 30 30 32 34 32 46 43 36 44 48 51 49 50 45 45 42 40 34 35 34 38 43 45 48 50 50 48 47 45 43 41 36 31 28 29 27 26 26 27 25 24 21
29 29 30 32 34 38 41 36 30 36 40 46 46 47 51 46 51 56 50 48 39 44 45 47 51 47 51 53 50 49 48 46 41 35 34 35 34 37 32 29 29 28 26 24
27 24 31 27 32 29 35 29 33 35 43 41 39 42 44 46 49 56 61 64 60 68 78 73 64 47 49 53 51 52 50 48 45 41 36 37 36 31 29 25 24 24 22 23
27 25 28 37 31 34 28 37 48 45 43 47 44 46 43 41 46 49 47 48 46 38 32 35 61 52 52 59 56 48 47 45 44 43 36 32 31 29 28 26 23 23 25 28
27 26 31 36 36 30 22 30 35 44 47 51 45 45 48 47 45 45 48 47 46 39 27 25 35 35 25 63 51 49 44 42 40 35 31 28 26 25 25 26 26 26 24 20
15 21 25 28 26 27 22 25 28 26 34 34 37 50 56 56 48 47 53 50 45 38 44 36 7 9 6 21 41 43 40 33 29 27 25 24 24 25 27 27 31 35 33 27
Wind_Direction
240 191 165 157 165 177 148 180 243 231 175 121 161 195 174 164 159 155 157 160 163 169 176 160 159 154 158 165 157 154 153 158 146 154 156 150 152 160 142 123 97 93 129 151
255 172 210 237 216 211 180 192 181 244 154 153 158 178 178 166 163 161 156 161 167 171 174 165 156 154 156 162 165 158 157 153 156 156 152 151 144 145 141 149 123 41 357 207
139 188 252 267 249 259 260 82 138 71 195 226 250 199 174 171 174 168 174 164 169 173 172 168 158 159 158 162 165 164 160 157 155 155 137 83 105 155 152 165 119 178 188 224
271 266 289 287 280 312 317 125 181 67 33 244 109 273 162 139 164 167 166 174 175 171 176 166 163 162 163 169 164 160 155 157 160 156 143 142 150 162 154 161 172 191 230 274
290 282 282 278 286 307 296 319 329 76 107 297 205 256 242 76 147 168 171 175 181 175 165 166 165 166 169 164 165 162 156 157 159 161 156 154 166 165 160 159 143 165 309 317
263 280 285 284 264 287 305 314 324 349 4 275 265 307 252 78 149 159 171 180 177 173 167 167 171 167 169 167 165 163 160 161 160 164 166 165 171 170 174 181 159 176 84 56
274 269 293 312 286 308 327 313 308 310 334 333 210 243 214 262 232 168 163 171 176 169 167 166 164 167 167 166 165 165 165 164 164 169 176 175 174 174 178 177 175 85 86 75
299 306 302 314 313 292 314 340 314 296 285 246 318 221 266 273 224 182 169 161 163 167 167 168 163 167 170 170 167 167 169 169 169 172 179 179 174 173 172 169 164 135 116 87
307 291 309 302 305 326 318 312 321 313 311 293 310 277 261 305 321 268 139 138 153 168 169 170 166 169 172 173 172 171 171 174 171 175 178 183 177 174 172 169 164 155 109 92
295 293 306 311 337 332 311 337 307 307 291 286 307 310 288 307 340 344 110 133 156 164 173 172 173 170 170 175 178 174 174 175 175 174 177 182 184 182 179 165 164 156 131 124
279 291 287 310 329 330 323 319 315 315 304 296 290 298 320 347 24 338 64 105 141 164 169 171 176 171 169 171 175 179 179 180 179 178 176 177 184 188 184 178 169 160 146 119
294 302 293 305 326 333 344 319 320 306 295 298 300 298 313 280 245 259 286 9 86 157 168 169 175 168 169 168 173 179 181 182 185 183 179 182 186 186 187 185 179 161 137 125
319 300 297 299 307 325 322 318 314 312 309 295 291 296 312 302 270 288 257 264 350 131 154 164 165 170 173 173 172 175 177 184 182 180 183 185 187 187 189 185 176 158 151 149
2 313 312 310 307 314 313 318 320 317 302 299 297 304 298 300 312 222 271 326 352 125 145 160 165 174 176 173 174 177 181 182 179 178 182 187 189 189 186 177 170 168 170 173
315 312 319 321 320 324 323 318 320 320 311 301 294 298 289 289 285 262 286 296 321 9 126 153 169 177 181 181 180 178 182 182 179 181 183 190 189 186 183 182 177 178 185 186
309 307 313 316 322 332 326 320 322 320 314 309 297 298 310 297 306 301 300 346 346 344 328 303 179 181 181 186 190 191 189 187 184 188 193 193 193 199 197 198 193 190 196 195
304 315 310 312 318 321 311 313 319 322 323 317 307 293 292 317 309 280 359 330 344 356 343 323 319 309 244 216 202 200 200 203 206 204 203 213 230 218 220 227 218 215 218 210
305 313 317 306 311 306 317 329 327 324 312 317 316 302 290 297 316 322 322 322 330 327 323 327 331 319 305 292 264 235 200 213 215 222 241 269 261 258 263 253 233 237 242 228
307 301 309 315 313 317 316 318 315 308 297 291 300 299 289 277 278 283 305 320 332 332 332 323 323 318 310 314 311 303 296 300 275 220 238 269 273 275 273 263 255 260 256 268
348 340 322 322 316 310 324 316 314 307 294 288 286 288 284 277 266 277 283 305 321 335 336 329 323 318 325 313 315 318 312 302 298 297 292 288 284 279 272 267 263 273 273 282
336 333 331 328 324 326 329 309 307 302 303 293 280 281 280 276 273 279 278 302 302 325 321 321 325 328 326 335 328 321 319 313 309 306 305 303 297 289 288 286 287 287 286 288
346 343 338 335 328 323 330 325 319 311 312 296 287 282 284 283 279 277 280 278 297 296 310 327 318 325 320 323 327 321 315 314 315 316 313 306 304 301 298 294 297 294 295 299
350 358 343 344 336 344 337 336 321 312 301 303 298 292 294 291 289 290 287 290 284 275 283 303 298 315 314 312 317 318 315 316 318 316 319 315 314 311 308 302 300 302 301 300
360 356 349 342 353 349 350 319 301 303 296 290 289 288 296 303 297 297 304 306 302 302 290 290 300 303 312 290 294 319 318 318 319 317 319 324 323 322 319 313 308 305 306 306
355 360 346 338 344 352 355 348 326 299 286 279 284 291 294 299 303 303 302 306 301 306 310 319 315 325 303 263 300 314 320 322 322 326 330 334 337 335 331 326 319 317 315 315
3 358 353 354 11 22 27 15 355 334 276 276 300 296 280 287 307 301 291 293 301 308 302 312 283 313 317 315 316 320 324 329 333 333 336 341 345 341 335 331 326 324 322 321